Location: Aiyekoto
(8.4333°N, 4.3667°E)
Time: 13:22:49
(UTC+00:00)

ADEOS - Pass Details

Date: 03 October 2020
Orbit: 792 x 794 km, 98.9° (Epoch: 27 October)

Event Time Altitude Azimuth Distance (km) Brightness Sun altitude
Rises 03:30:21 0° 21° (NNE) 3,279 7.0 -30.5°
Reaches altitude 10° 03:32:44 10° 26° (NNE) 2,351 6.3 -30.0°
Maximum altitude 03:37:47 53° 102° (ESE) 968 4.2 -28.7°
Drops below altitude 10° 03:42:50 10° 178° (S) 2,355 6.0 -27.5°
Sets 03:45:12 0° 183° (S) 3,285 6.8 -26.9°
